Location: Maccacari
(45.1333°N, 11.1333°E)
Time: 07:44:17
(UTC+00:00)

Meteor 1-24 Rocket - Pass Details

Date: 18 September 2020
Orbit: 790 x 927 km, 81.2° (Epoch: 29 October)

Event Time Altitude Azimuth Distance (km) Brightness Sun altitude
Rises 19:06:22 0° 357° (N) 3,348 7.2 -19.1°
Reaches altitude 10° 19:08:58 10° 6° (N) 2,429 6.3 -19.5°
Maximum altitude 19:13:56 34° 71° (ENE) 1,363 4.4 -20.3°
Enters shadow 19:14:20 33° 80° (E) 1,375 4.4 -20.4°
